When you browse on this site, cookies collect data to enhance your experience and personalize the content and advertising you see.
Visit our Privacy Policy to learn more. By continuing to use the site, you agree to this use of cookies and data.
  • In Germany
  • List of Countries
  • For 7 days
  • Water Temperature
  • Satellite Maps
  • Weather Map
  • Weather Widgets
  • user-avatar
    Login

    Hourly Weather Bururi

    Today, 22 January, Tuesday

    Time Temperature Precipitation Wind Pressure Humidity
    00:00 +16°C° 0 mm 1 mps 617 mmHg 71%
    01:00 +18°C° 0 mm 1 mps 617 mmHg 71%
    02:00 +18°C° 0 mm 1 mps 617 mmHg 71%
    03:00 +18°C° 0 mm 1 mps 617 mmHg 72%
    04:00 +18°C° 0 mm 1 mps 616 mmHg 72%
    05:00 +18°C° 0 mm 1 mps 616 mmHg 73%
    06:00 +19°C° 0 mm 1 mps 617 mmHg 72%
    07:00 +19°C° 0 mm 1 mps 617 mmHg 70%
    08:00 +21°C° 0 mm 1 mps 617 mmHg 67%
    09:00 +22°C° 0 mm 1 mps 618 mmHg 62%
    10:00 +24°C° 0 mm 1 mps 618 mmHg 56%
    11:00 +25°C° 0 mm 1 mps 618 mmHg 51%
    12:00 +25°C° 0.1 mm 1 mps 617 mmHg 54%
    13:00 +25°C° 0.1 mm 2 mps 617 mmHg 56%
    14:00 +25°C° 0.1 mm 2 mps 616 mmHg 59%
    15:00 +23°C° 0.2 mm 2 mps 616 mmHg 65%
    16:00 +22°C° 0.2 mm 1 mps 615 mmHg 71%
    17:00 +21°C° 0.2 mm 1 mps 615 mmHg 77%
    18:00 +20°C° 0.1 mm 1 mps 615 mmHg 80%
    19:00 +20°C° 0.1 mm 1 mps 615 mmHg 82%
    20:00 +19°C° 0.1 mm 1 mps 616 mmHg 85%
    21:00 +19°C° 0.2 mm 1 mps 616 mmHg 86%
    22:00 +17°C° 0.2 mm 0 mps 616 mmHg 87%
    23:00 +17°C° 0.2 mm 0 mps 617 mmHg 88%

    Tomorrow, 23 January, Wednesday

    Time Temperature Precipitation Wind Pressure Humidity
    00:00 +16°C° 0.8 mm 0 mps 616 mmHg 89%
    01:00 +16°C° 0.8 mm 0 mps 616 mmHg 90%
    02:00 +18°C° 0.8 mm 1 mps 616 mmHg 91%
    03:00 +18°C° 0.5 mm 1 mps 616 mmHg 90%
    04:00 +18°C° 0.5 mm 1 mps 616 mmHg 88%
    05:00 +16°C° 0.5 mm 1 mps 616 mmHg 87%
    06:00 +18°C° 0.2 mm 1 mps 616 mmHg 83%
    07:00 +19°C° 0.2 mm 1 mps 617 mmHg 80%
    08:00 +20°C° 0.2 mm 1 mps 617 mmHg 77%
    09:00 +21°C° 0.3 mm 1 mps 618 mmHg 72%
    10:00 +23°C° 0.3 mm 1 mps 618 mmHg 67%
    11:00 +24°C° 0.3 mm 2 mps 618 mmHg 61%
    12:00 +24°C° 0.5 mm 1 mps 618 mmHg 62%
    13:00 +24°C° 0.5 mm 1 mps 617 mmHg 63%
    14:00 +24°C° 0.5 mm 1 mps 617 mmHg 63%
    15:00 +24°C° 0.8 mm 1 mps 616 mmHg 67%
    16:00 +23°C° 0.8 mm 1 mps 615 mmHg 71%
    17:00 +20°C° 0.8 mm 0 mps 615 mmHg 75%
    18:00 +19°C° 0.7 mm 0 mps 615 mmHg 78%
    19:00 +18°C° 0.7 mm 0 mps 615 mmHg 82%
    20:00 +17°C° 0.7 mm 0 mps 616 mmHg 86%
    21:00 +17°C° 0.6 mm 0 mps 616 mmHg 87%
    22:00 +16°C° 0.6 mm 0 mps 616 mmHg 88%
    23:00 +16°C° 0.6 mm 0 mps 617 mmHg 89%

    Day after tomorrow, 24 January, Thursday

    Time Temperature Precipitation Wind Pressure Humidity
    00:00 +16°C° 0.5 mm 0 mps 617 mmHg 89%
    01:00 +18°C° 0.5 mm 1 mps 616 mmHg 89%
    02:00 +18°C° 0.5 mm 1 mps 616 mmHg 89%
    03:00 +18°C° 0.4 mm 1 mps 616 mmHg 87%
    04:00 +18°C° 0.4 mm 1 mps 616 mmHg 86%
    05:00 +18°C° 0.4 mm 1 mps 616 mmHg 85%
    06:00 +18°C° 0 mm 1 mps 617 mmHg 83%
    07:00 +19°C° 0 mm 1 mps 617 mmHg 81%
    08:00 +19°C° 0 mm 1 mps 618 mmHg 79%
    09:00 +21°C° 0 mm 1 mps 618 mmHg 72%
    10:00 +23°C° 0 mm 1 mps 619 mmHg 64%
    11:00 +24°C° 0 mm 1 mps 619 mmHg 57%
    12:00 +24°C° 0.4 mm 1 mps 618 mmHg 59%
    13:00 +24°C° 0.4 mm 1 mps 617 mmHg 60%
    14:00 +24°C° 0.4 mm 1 mps 616 mmHg 62%
    15:00 +23°C° 0.6 mm 1 mps 616 mmHg 66%
    16:00 +23°C° 0.6 mm 1 mps 616 mmHg 71%
    17:00 +22°C° 0.6 mm 1 mps 615 mmHg 75%
    18:00 +21°C° 1.4 mm 1 mps 616 mmHg 80%
    19:00 +20°C° 1.4 mm 1 mps 616 mmHg 85%
    20:00 +18°C° 1.4 mm 1 mps 616 mmHg 89%
    21:00 +18°C° 1 mm 1 mps 616 mmHg 89%
    22:00 +18°C° 1 mm 1 mps 617 mmHg 89%
    23:00 +16°C° 1 mm 0 mps 617 mmHg 89%

    25 January, Friday

    Time Temperature Precipitation Wind Pressure Humidity
    00:00 +16°C° 0.3 mm 1 mps 617 mmHg 89%
    01:00 +16°C° 0.3 mm 1 mps 616 mmHg 90%
    02:00 +16°C° 0.3 mm 1 mps 616 mmHg 90%
    03:00 +16°C° 0.1 mm 1 mps 616 mmHg 89%
    04:00 +16°C° 0.1 mm 1 mps 616 mmHg 89%
    05:00 +16°C° 0.1 mm 1 mps 616 mmHg 88%
    06:00 +18°C° 0.2 mm 1 mps 617 mmHg 85%
    07:00 +19°C° 0.2 mm 1 mps 617 mmHg 82%
    08:00 +20°C° 0.2 mm 1 mps 618 mmHg 78%
    09:00 +21°C° 0.6 mm 1 mps 619 mmHg 74%
    10:00 +23°C° 0.6 mm 1 mps 619 mmHg 69%
    11:00 +24°C° 0.6 mm 1 mps 619 mmHg 64%
    12:00 +24°C° 1.1 mm 1 mps 618 mmHg 67%
    13:00 +23°C° 1.1 mm 1 mps 618 mmHg 70%
    14:00 +23°C° 1.1 mm 1 mps 617 mmHg 74%
    15:00 +22°C° 2.4 mm 1 mps 617 mmHg 77%
    16:00 +22°C° 2.4 mm 1 mps 616 mmHg 81%
    17:00 +21°C° 2.4 mm 1 mps 616 mmHg 84%
    18:00 +20°C° 1.1 mm 1 mps 616 mmHg 86%
    19:00 +19°C° 1.1 mm 1 mps 616 mmHg 88%
    20:00 +18°C° 1.1 mm 1 mps 616 mmHg 90%
    21:00 +18°C° 0.1 mm 1 mps 617 mmHg 90%
    22:00 +16°C° 0.1 mm 1 mps 617 mmHg 89%
    23:00 +16°C° 0.1 mm 1 mps 617 mmHg 89%

    26 January, Saturday

    Time Temperature Precipitation Wind Pressure Humidity
    00:00 +16°C° 0 mm 1 mps 617 mmHg 88%
    01:00 +16°C° 0 mm 1 mps 616 mmHg 88%
    02:00 +15°C° 0 mm 1 mps 616 mmHg 88%
    03:00 +15°C° 0 mm 1 mps 616 mmHg 87%
    04:00 +15°C° 0 mm 1 mps 616 mmHg 87%
    05:00 +15°C° 0 mm 1 mps 616 mmHg 87%
    06:00 +18°C° 0 mm 1 mps 617 mmHg 83%
    07:00 +19°C° 0 mm 1 mps 618 mmHg 79%
    08:00 +21°C° 0 mm 1 mps 618 mmHg 75%
    09:00 +22°C° 0 mm 1 mps 619 mmHg 69%
    10:00 +24°C° 0 mm 1 mps 619 mmHg 63%
    11:00 +26°C° 0 mm 1 mps 619 mmHg 56%
    12:00 +26°C° 0.3 mm 1 mps 618 mmHg 58%
    13:00 +25°C° 0.3 mm 1 mps 618 mmHg 60%
    14:00 +25°C° 0.3 mm 1 mps 617 mmHg 62%
    15:00 +25°C° 0.6 mm 1 mps 617 mmHg 65%
    16:00 +24°C° 0.6 mm 1 mps 616 mmHg 67%
    17:00 +24°C° 0.6 mm 1 mps 616 mmHg 70%
    18:00 +22°C° 0.5 mm 1 mps 616 mmHg 76%
    19:00 +20°C° 0.5 mm 1 mps 616 mmHg 82%
    20:00 +18°C° 0.5 mm 1 mps 616 mmHg 88%
    21:00 +18°C° 0 mm 1 mps 616 mmHg 88%
    22:00 +18°C° 0 mm 1 mps 616 mmHg 88%
    23:00 +16°C° 0 mm 1 mps 616 mmHg 87%

    27 January, Sunday

    Time Temperature Precipitation Wind Pressure Humidity
    00:00 +16°C° 0 mm 1 mps 616 mmHg 87%
    01:00 +16°C° 0 mm 1 mps 615 mmHg 86%
    02:00 +16°C° 0 mm 1 mps 615 mmHg 86%
    03:00 +16°C° 0 mm 1 mps 615 mmHg 85%
    04:00 +16°C° 0 mm 2 mps 615 mmHg 84%
    05:00 +16°C° 0 mm 2 mps 615 mmHg 83%
    06:00 +17°C° 0 mm 2 mps 616 mmHg 79%
    07:00 +19°C° 0 mm 2 mps 617 mmHg 75%
    08:00 +21°C° 0 mm 2 mps 618 mmHg 71%
    09:00 +23°C° 0.1 mm 2 mps 618 mmHg 66%
    10:00 +25°C° 0.1 mm 2 mps 618 mmHg 60%
    11:00 +27°C° 0.1 mm 2 mps 619 mmHg 54%
    12:00 +27°C° 0.4 mm 1 mps 618 mmHg 56%
    13:00 +27°C° 0.4 mm 1 mps 617 mmHg 58%
    14:00 +27°C° 0.4 mm 1 mps 617 mmHg 59%
    15:00 +26°C° 0.6 mm 1 mps 616 mmHg 63%
    16:00 +25°C° 0.6 mm 1 mps 616 mmHg 67%
    17:00 +24°C° 0.6 mm 1 mps 615 mmHg 71%
    18:00 +22°C° 0.8 mm 1 mps 615 mmHg 77%
    19:00 +21°C° 0.8 mm 1 mps 616 mmHg 83%
    20:00 +19°C° 0.8 mm 1 mps 616 mmHg 89%
    21:00 +18°C° 0 mm 1 mps 616 mmHg 88%
    22:00 +18°C° 0 mm 1 mps 616 mmHg 87%
    23:00 +18°C° 0 mm 1 mps 616 mmHg 86%
    Show more